Simultaneous Nadir Overpasses (SNOs) Predictions

Prediction of SNOs between METOP-A and TERRA Satellite Orbit:

Table of predicted SNOs for the next 14.0 days since TLE Epoch: 9/19/2015
Index Date (METOP-A) Time (METOP-A) Lat,Lon (METOP-A) SZA (METOP-A ) Date (TERRA) Time (TERRA) Lat,Lon (TERRA) SZA (TERRA ) Distance(km) Time Diff (sec)
1 09/20/2015 10:41:53 -81.36,-112.27 96.72 09/20/2015 10:42:14 -81.36,-112.19 96.70 1.31 21
2 09/20/2015 11:32:33 81.36, 55.41 83.34 09/20/2015 11:31:40 81.37, 55.56 83.34 2.59 53
3 09/23/2015 06:16:12 -81.36, -45.62 95.57 09/23/2015 06:16:24 -81.36, -45.71 95.58 1.51 12
4 09/23/2015 07:06:52 81.36, 122.05 84.49 09/23/2015 07:05:50 81.37, 122.02 84.45 0.51 62
5 09/26/2015 01:50:33 -81.36, 20.61 94.48 09/26/2015 01:50:35 -81.36, 20.71 94.47 1.71 2
6 09/
